When you browse on this site, cookies collect data to enhance your experience and personalize the content and advertising you see.
Visit our Privacy Policy to learn more. By continuing to use the site, you agree to this use of cookies and data.
  • In Österreich
  • Länderverzeichnis
  • Für 7 Tage
  • Wassertemperatur
  • Satellitenkarten
  • Wetterkarte
  • News
  • Widgets
  • user-avatar
    Anmelden

    Stündliche Wetter Biskira

    Heute, 24 März, Sonntag

    Zeit Temperatur Niederschläge Wind Luftdruck Luftfeuchtigkeit
    00:00 +18°C° 0 mm 1 m/S 758 mmHg 49%
    01:00 +16°C° 0 mm 1 m/S 757 mmHg 50%
    02:00 +15°C° 0 mm 0 m/S 757 mmHg 51%
    03:00 +14°C° 0 mm 0 m/S 757 mmHg 53%
    04:00 +14°C° 0 mm 0 m/S 757 mmHg 54%
    05:00 +14°C° 0 mm 0 m/S 757 mmHg 55%
    06:00 +14°C° 0 mm 0 m/S 758 mmHg 54%
    07:00 +15°C° 0 mm 0 m/S 758 mmHg 50%
    08:00 +18°C° 0 mm 1 m/S 758 mmHg 46%
    09:00 +20°C° 0 mm 1 m/S 758 mmHg 41%
    10:00 +20°C° 0 mm 1 m/S 758 mmHg 39%
    11:00 +20°C° 0 mm 2 m/S 758 mmHg 37%
    12:00 +21°C° 0 mm 2 m/S 758 mmHg 35%
    13:00 +21°C° 0 mm 2 m/S 757 mmHg 33%
    14:00 +23°C° 0 mm 2 m/S 757 mmHg 32%
    15:00 +22°C° 0 mm 3 m/S 756 mmHg 31%
    16:00 +23°C° 0 mm 2 m/S 756 mmHg 32%
    17:00 +21°C° 0 mm 2 m/S 756 mmHg 33%
    18:00 +21°C° 0 mm 2 m/S 756 mmHg 34%
    19:00 +20°C° 0 mm 2 m/S 756 mmHg 37%
    20:00 +20°C° 0 mm 2 m/S 757 mmHg 39%
    21:00 +20°C° 0 mm 1 m/S 757 mmHg 41%
    22:00 +20°C° 0 mm 1 m/S 757 mmHg 43%
    23:00 +19°C° 0 mm 1 m/S 757 mmHg 45%

    Morgen, 25 März, Montag

    Zeit Temperatur Niederschläge Wind Luftdruck Luftfeuchtigkeit
    00:00 +18°C° 0 mm 1 m/S 757 mmHg 47%
    01:00 +18°C° 0 mm 1 m/S 757 mmHg 49%
    02:00 +16°C° 0 mm 1 m/S 756 mmHg 51%
    03:00 +15°C° 0 mm 0 m/S 756 mmHg 53%
    04:00 +16°C° 0 mm 1 m/S 756 mmHg 53%
    05:00 +15°C° 0 mm 1 m/S 756 mmHg 53%
    06:00 +15°C° 0 mm 1 m/S 756 mmHg 52%
    07:00 +18°C° 0 mm 1 m/S 756 mmHg 48%
    08:00 +19°C° 0 mm 1 m/S 756 mmHg 43%
    09:00 +21°C° 0 mm 1 m/S 757 mmHg 39%
    10:00 +21°C° 0 mm 1 m/S 756 mmHg 37%
    11:00 +21°C° 0 mm 2 m/S 756 mmHg 35%
    12:00 +23°C° 0 mm 2 m/S 755 mmHg 33%
    13:00 +22°C° 0 mm 3 m/S 754 mmHg 31%
    14:00 +24°C° 0 mm 3 m/S 754 mmHg 29%
    15:00 +25°C° 0 mm 3 m/S 753 mmHg 27%
    16:00 +24°C° 0 mm 2 m/S 753 mmHg 28%
    17:00 +24°C° 0 mm 2 m/S 753 mmHg 29%
    18:00 +23°C° 0 mm 1 m/S 752 mmHg 31%
    19:00 +23°C° 0 mm 1 m/S 753 mmHg 32%
    20:00 +21°C° 0 mm 2 m/S 753 mmHg 33%
    21:00 +21°C° 0 mm 2 m/S 753 mmHg 34%
    22:00 +21°C° 0 mm 1 m/S 753 mmHg 36%
    23:00 +20°C° 0 mm 1 m/S 753 mmHg 38%

    übermorgen, 26 März, Dienstag

    Zeit Temperatur Niederschläge Wind Luftdruck Luftfeuchtigkeit
    00:00 +18°C° 0 mm 0 m/S 753 mmHg 40%
    01:00 +19°C° 0 mm 1 m/S 752 mmHg 40%
    02:00 +19°C° 0 mm 1 m/S 752 mmHg 40%
    03:00 +19°C° 0 mm 1 m/S 752 mmHg 40%
    04:00 +19°C° 0 mm 1 m/S 752 mmHg 40%
    05:00 +18°C° 0 mm 2 m/S 752 mmHg 40%
    06:00 +18°C° 0 mm 2 m/S 752 mmHg 40%
    07:00 +20°C° 0 mm 1 m/S 752 mmHg 37%
    08:00 +21°C° 0 mm 1 m/S 752 mmHg 34%
    09:00 +23°C° 0 mm 1 m/S 752 mmHg 31%
    10:00 +24°C° 0 mm 2 m/S 752 mmHg 30%
    11:00 +25°C° 0 mm 3 m/S 752 mmHg 29%
    12:00 +26°C° 0 mm 4 m/S 752 mmHg 28%
    13:00 +23°C° 0.2 mm 4 m/S 751 mmHg 34%
    14:00 +22°C° 0.2 mm 5 m/S 751 mmHg 40%
    15:00 +21°C° 0.2 mm 6 m/S 751 mmHg 45%
    16:00 +21°C° 0.3 mm 6 m/S 751 mmHg 48%
    17:00 +21°C° 0.3 mm 6 m/S 751 mmHg 50%
    18:00 +20°C° 0.3 mm 5 m/S 752 mmHg 52%
    19:00 +20°C° 0 mm 5 m/S 752 mmHg 51%
    20:00 +20°C° 0 mm 5 m/S 753 mmHg 49%
    21:00 +20°C° 0 mm 4 m/S 754 mmHg 48%
    22:00 +19°C° 0.2 mm 4 m/S 754 mmHg 50%
    23:00 +17°C° 0.2 mm 5 m/S 754 mmHg 52%

    27 März, Mittwoch

    Zeit Temperatur Niederschläge Wind Luftdruck Luftfeuchtigkeit
    00:00 +17°C° 0.2 mm 5 m/S 754 mmHg 54%
    01:00 +16°C° 0.2 mm 5 m/S 754 mmHg 53%
    02:00 +15°C° 0.2 mm 5 m/S 754 mmHg 51%
    03:00 +15°C° 0.2 mm 5 m/S 754 mmHg 50%
    04:00 +14°C° 0.2 mm 5 m/S 754 mmHg 50%
    05:00 +14°C° 0.2 mm 5 m/S 754 mmHg 50%
    06:00 +14°C° 0.2 mm 5 m/S 754 mmHg 50%
    07:00 +14°C° 0 mm 4 m/S 754 mmHg 46%
    08:00 +16°C° 0 mm 3 m/S 755 mmHg 43%
    09:00 +17°C° 0 mm 2 m/S 755 mmHg 39%
    10:00 +17°C° 0.1 mm 2 m/S 755 mmHg 41%
    11:00 +17°C° 0.1 mm 2 m/S 755 mmHg 42%
    12:00 +17°C° 0.1 mm 2 m/S 755 mmHg 44%
    13:00 +16°C° 0.4 mm 2 m/S 754 mmHg 49%
    14:00 +16°C° 0.4 mm 1 m/S 754 mmHg 54%
    15:00 +15°C° 0.4 mm 1 m/S 754 mmHg 59%
    16:00 +15°C° 0.3 mm 1 m/S 754 mmHg 59%
    17:00 +15°C° 0.3 mm 1 m/S 754 mmHg 59%
    18:00 +15°C° 0.3 mm 1 m/S 754 mmHg 58%
    19:00 +15°C° 0 mm 1 m/S 755 mmHg 57%
    20:00 +15°C° 0 mm 1 m/S 755 mmHg 56%
    21:00 +15°C° 0 mm 1 m/S 756 mmHg 55%
    22:00 +15°C° 0 mm 2 m/S 755 mmHg 56%
    23:00 +15°C° 0 mm 2 m/S 755 mmHg 56%

    28 März, Donnerstag

    Zeit Temperatur Niederschläge Wind Luftdruck Luftfeuchtigkeit
    00:00 +15°C° 0 mm 2 m/S 755 mmHg 57%
    01:00 +15°C° 0 mm 2 m/S 755 mmHg 57%
    02:00 +15°C° 0 mm 2 m/S 755 mmHg 58%
    03:00 +15°C° 0 mm 2 m/S 755 mmHg 58%
    04:00 +14°C° 0 mm 2 m/S 756 mmHg 57%
    05:00 +14°C° 0 mm 2 m/S 756 mmHg 56%
    06:00 +14°C° 0 mm 2 m/S 756 mmHg 54%
    07:00 +15°C° 0 mm 2 m/S 757 mmHg 50%
    08:00 +16°C° 0 mm 2 m/S 757 mmHg 45%
    09:00 +17°C° 0 mm 2 m/S 757 mmHg 41%
    10:00 +18°C° 0 mm 2 m/S 757 mmHg 38%
    11:00 +19°C° 0 mm 2 m/S 757 mmHg 35%
    12:00 +20°C° 0 mm 2 m/S 756 mmHg 32%
    13:00 +20°C° 0 mm 2 m/S 756 mmHg 30%
    14:00 +21°C° 0 mm 2 m/S 756 mmHg 28%
    15:00 +21°C° 0 mm 2 m/S 755 mmHg 25%
    16:00 +21°C° 0 mm 2 m/S 755 mmHg 26%
    17:00 +21°C° 0 mm 2 m/S 756 mmHg 26%
    18:00 +21°C° 0 mm 2 m/S 756 mmHg 27%
    19:00 +20°C° 0 mm 2 m/S 757 mmHg 30%
    20:00 +19°C° 0 mm 2 m/S 757 mmHg 32%
    21:00 +19°C° 0 mm 2 m/S 758 mmHg 35%
    22:00 +18°C° 0 mm 2 m/S 758 mmHg 37%
    23:00 +18°C° 0 mm 2 m/S 758 mmHg 40%

    29 März, Freitag

    Zeit Temperatur Niederschläge Wind Luftdruck Luftfeuchtigkeit
    00:00 +18°C° 0 mm 1 m/S 758 mmHg 42%
    01:00 +17°C° 0 mm 2 m/S 758 mmHg 44%
    02:00 +16°C° 0 mm 2 m/S 758 mmHg 46%
    03:00 +16°C° 0 mm 3 m/S 758 mmHg 48%
    04:00 +16°C° 0 mm 3 m/S 758 mmHg 52%
    05:00 +14°C° 0 mm 3 m/S 759 mmHg 55%
    06:00 +14°C° 0 mm 4 m/S 759 mmHg 58%
    07:00 +15°C° 0 mm 4 m/S 759 mmHg 57%
    08:00 +15°C° 0 mm 4 m/S 759 mmHg 55%
    09:00 +17°C° 0 mm 4 m/S 759 mmHg 53%
    10:00 +18°C° 0 mm 4 m/S 759 mmHg 49%
    11:00 +19°C° 0 mm 3 m/S 758 mmHg 46%
    12:00 +20°C° 0 mm 3 m/S 758 mmHg 42%
    13:00 +20°C° 0 mm 2 m/S 758 mmHg 39%
    14:00 +21°C° 0 mm 2 m/S 757 mmHg 37%
    15:00 +22°C° 0 mm 1 m/S 757 mmHg 34%
    16:00 +22°C° 0 mm 1 m/S 757 mmHg 34%
    17:00 +22°C° 0 mm 1 m/S 757 mmHg 34%
    18:00 +22°C° 0 mm 1 m/S 757 mmHg 34%
    19:00 +21°C° 0 mm 2 m/S 757 mmHg 36%
    20:00 +20°C° 0 mm 2 m/S 758 mmHg 38%
    21:00 +20°C° 0 mm 2 m/S 758 mmHg 40%
    22:00 +19°C° 0 mm 2 m/S 758 mmHg 41%
    23:00 +19°C° 0 mm 2 m/S 758 mmHg 42%
    Mehr zeigen